Regional Weather Roundup
Issued by NWS

Home | Current Version | Previous Version | Graphics & Text | Print | Product List | Glossary On
Versions: 1 2 3 4 5 6 7 8 9 10 11 12 13 14 15 16 17 18 19 20 21 22 23 24 25 26 27 28 29 30 31 32 33 34 35 36 37 38 39 40 41 42 43 44 45 46 47 48 49 50
000
ASUS43 KLSX 031757
RWRMO

WEATHER SUMMARY FOR MISSOURI
NATIONAL WEATHER SERVICE SPRINGFIELD MO
1200 PM CST SAT DEC 03 2016

NOTE: "FAIR" INDICATES FEW OR NO CLOUDS BELOW 12,000 FEET WITH NO
       SIGNIFICANT WEATHER AND/OR OBSTRUCTIONS TO VISIBILITY.
       CURRENT SKY AND/OR WEATHER CONDITIONS ARE NOT AVAILABLE FOR
       CHILLICOTHE AND FARMINGTON.

MOZ001>031-035>038-043-044-053-054-031900-
...NORTHERN AND WESTERN MISSOURI...

CITY           SKY/WX    TMP DP  RH WIND       PRES   REMARKS
KANSAS CTY INT NOT AVBL
ST JOSEPH      CLOUDY    40  32  73 E7        30.27F
6HR MIN TEMP:  22; 6HR MAX TEMP:  40;


$$
MOZ066>068-077>081-088>096-101>105-031900-
...SOUTHWEST MISSOURI...

CITY           SKY/WX    TMP DP  RH WIND       PRES   REMARKS
SPRINGFIELD    PTSUNNY   48  30  49 SE17      30.24F
6HR MIN TEMP:  42; 6HR MAX TEMP:  48;

JOPLIN         CLOUDY    51  33  50 SE10      30.22F
6HR MIN TEMP:  44; 6HR MAX TEMP:  51;

BRANSON        CLOUDY    45  32  61 SE9G16    30.26F

$$
MOZ032>034-039>042-045>050-055>058-069>072-031900-
...CENTRAL MISSOURI...

CITY           SKY/WX    TMP DP  RH WIND       PRES   REMARKS
COLUMBIA       NOT AVBL
JEFFERSON CITY MOSUNNY   41  33  73 SE7       30.32F
6HR MIN TEMP:  26; 6HR MAX TEMP:  42;

ROLLA          CLOUDY    41  31  67 SE9       30.29F
6HR MIN TEMP:  31; 6HR MAX TEMP:  41;

SEDALIA        CLOUDY    47  32  56 SE10      30.29F
6HR MIN TEMP:  32; 6HR MAX TEMP:  47;


$$
MOZ051-052-059>065-031900-
...EAST CENTRAL MISSOURI...

CITY           SKY/WX    TMP DP  RH WIND       PRES   REMARKS
ST LOUIS INTL  CLOUDY    44  29  55 SE9       30.36F
6HR MIN TEMP:  30; 6HR MAX TEMP:  44;


$$
MOZ072>076-082>087-097>100-106>115-031900-
...SOUTH CENTRAL AND SOUTHEAST MISSOURI...

CITY           SKY/WX    TMP DP  RH WIND       PRES   REMARKS
CAPE GIRARDEAU CLOUDY    43  32  65 E8        30.35F
6HR MIN TEMP:  34; 6HR MAX TEMP:  43;

POPLAR BLUFF   CLOUDY    43  35  73 E8        30.33F
6HR MIN TEMP:  38; 6HR MAX TEMP:  44;

WEST PLAINS    CLOUDY    43  32  65 E9        30.29F
6HR MIN TEMP:  38; 6HR MAX TEMP:  43;


$$



USA.gov is the U.S. government's official web portal to all federal, state and local government web resources and services.